NR76G KPRC-KIFP

Flight info

Callsign NR76G
Flight time 1h 44m
Altitude 8500
Route VOR EED
Aircraft B36T/L-SG/C

Departure

Time 2026-05-09 17:14
Airport Prescott Regional Airport - Ernest A. Love Field (KPRC)

Arrival

Time 2026-05-09 18:58
Airport Laughlin Bullhead International Airport (KIFP)
Time Latitude Longitude Altitude Speed Heading
2026-05-09 16:48 34.65122 -112.42064 4989 ft 0 kts 312°
2026-05-09 16:58 34.65118 -112.42057 4989 ft 2 kts 306°
2026-05-09 16:59 34.65112 -112.42047 4990 ft 2 kts 306°
2026-05-09 16:59 34.65111 -112.42046 4990 ft 0 kts 306°
2026-05-09 17:05 34.65142 -112.42049 4988 ft 1 kts 19°
2026-05-09 17:05 34.65175 -112.42055 4986 ft 12 kts 17°
2026-05-09 17:05 34.65246 -112.41990 4984 ft 7 kts 42°
2026-05-09 17:05 34.65322 -112.41911 4982 ft 21 kts 43°
2026-05-09 17:06 34.65382 -112.41881 4980 ft 4 kts 334°
2026-05-09 17:06 34.65402 -112.41904 4979 ft 10 kts 311°
2026-05-09 17:06 34.65472 -112.41996 4980 ft 8 kts 312°
2026-05-09 17:06 34.65485 -112.42014 4980 ft 8 kts 313°
2026-05-09 17:07 34.65546 -112.41992 4980 ft 0 kts 40°
2026-05-09 17:07 34.65563 -112.41975 4980 ft 9 kts 39°
2026-05-09 17:07 34.65573 -112.41965 4984 ft 0 kts 39°
2026-05-09 17:08 34.65599 -112.41971 4983 ft 8 kts 319°
2026-05-09 17:08 34.65615 -112.41992 4987 ft 0 kts 309°
2026-05-09 17:09 34.65616 -112.41992 4987 ft 0 kts 309°
2026-05-09 17:10 34.65617 -112.41994 4987 ft 4 kts 309°
2026-05-09 17:11 34.65665 -112.42029 4991 ft 7 kts 28°
2026-05-09 17:11 34.65670 -112.42024 4990 ft 0 kts 39°
2026-05-09 17:12 34.65693 -112.42001 4991 ft 18 kts 40°
2026-05-09 17:13 34.65882 -112.41804 4988 ft 56 kts 42°
2026-05-09 17:13 34.66307 -112.41353 4976 ft 105 kts 41°
2026-05-09 17:13 34.66917 -112.40689 5115 ft 127 kts 40°
2026-05-09 17:13 34.67589 -112.39925 5368 ft 138 kts 43°
2026-05-09 17:14 34.68267 -112.39076 5693 ft 142 kts 45°
2026-05-09 17:14 34.68940 -112.38187 5989 ft 144 kts 45°
2026-05-09 17:14 34.69602 -112.37257 6224 ft 145 kts 45°
2026-05-09 17:14 34.70450 -112.36663 6454 ft 141 kts
2026-05-09 17:15 34.71394 -112.36818 6724 ft 138 kts 336°
2026-05-09 17:15 34.72257 -112.37324 6972 ft 138 kts 332°
2026-05-09 17:15 34.73101 -112.37911 7186 ft 141 kts 323°
2026-05-09 17:15 34.73861 -112.38690 7379 ft 145 kts 314°
2026-05-09 17:16 34.74404 -112.39657 7762 ft 138 kts 296°
2026-05-09 17:17 34.74363 -112.47982 8586 ft 138 kts 253°
2026-05-09 17:18 34.74162 -112.48934 9107 ft 99 kts 251°
2026-05-09 17:18 34.73937 -112.49963 8616 ft 146 kts 262°
2026-05-09 17:18 34.74047 -112.51139 8488 ft 136 kts 290°
2026-05-09 17:18 34.74467 -112.52195 8352 ft 144 kts 296°
2026-05-09 17:19 34.74953 -112.53252 8343 ft 139 kts 298°
2026-05-09 17:19 34.75447 -112.54260 8257 ft 144 kts 299°
2026-05-09 17:19 34.75963 -112.55308 8218 ft 142 kts 302°
2026-05-09 17:19 34.76577 -112.56235 8248 ft 140 kts 312°
2026-05-09 17:20 34.77309 -112.57013 8234 ft 142 kts 320°
2026-05-09 17:20 34.78170 -112.57618 8198 ft 145 kts 335°
2026-05-09 17:20 34.79149 -112.57984 8171 ft 148 kts 343°
2026-05-09 17:20 34.80138 -112.58235 8212 ft 145 kts 349°
2026-05-09 17:21 34.81155 -112.58347 8155 ft 149 kts 355°
2026-05-09 17:21 34.82179 -112.58311 8189 ft 146 kts
2026-05-09 17:21 34.83182 -112.58230 8240 ft 143 kts
2026-05-09 17:21 34.84176 -112.58101 8219 ft 146 kts
2026-05-09 17:22 34.85183 -112.57906 8230 ft 146 kts
2026-05-09 17:22 34.86195 -112.57790 8232 ft 145 kts 357°
2026-05-09 17:22 34.87186 -112.57908 8286 ft 142 kts 348°
2026-05-09 17:22 34.88158 -112.58171 8276 ft 144 kts 343°
2026-05-09 17:23 34.89115 -112.58514 8289 ft 142 kts 341°
2026-05-09 17:23 34.90058 -112.58876 8250 ft 143 kts 342°
2026-05-09 17:23 34.91026 -112.59185 8219 ft 143 kts 346°
2026-05-09 17:23 34.92004 -112.59368 8184 ft 143 kts 352°
2026-05-09 17:25 34.96751 -112.61030 8028 ft 144 kts 341°
2026-05-09 17:25 34.97705 -112.61396 8076 ft 140 kts 340°
2026-05-09 17:25 34.98643 -112.61760 8047 ft 143 kts 341°
2026-05-09 17:25 34.99587 -112.62147 8098 ft 141 kts 339°
2026-05-09 17:26 35.00508 -112.62536 8151 ft 140 kts 339°
2026-05-09 17:26 35.01435 -112.62934 8154 ft 141 kts 339°
2026-05-09 17:26 35.02363 -112.63336 8167 ft 143 kts 339°
2026-05-09 17:26 35.03296 -112.63760 8188 ft 143 kts 337°
2026-05-09 17:27 35.04217 -112.64206 8217 ft 143 kts 336°
2026-05-09 17:27 35.05152 -112.64628 8269 ft 143 kts 340°
2026-05-09 17:27 35.06135 -112.64807 8293 ft 146 kts 356°
2026-05-09 17:27 35.07143 -112.64773 8336 ft 143 kts 359°
2026-05-09 17:28 35.08137 -112.64782 8361 ft 143 kts 352°
2026-05-09 17:28 35.09118 -112.64983 8389 ft 143 kts 341°
2026-05-09 17:28 35.10026 -112.65434 8456 ft 139 kts 328°
2026-05-09 17:28 35.10545 -112.65879 8443 ft 139 kts 317°
2026-05-09 17:29 35.11463 -112.67068 8391 ft 143 kts 309°
2026-05-09 17:29 35.11899 -112.67669 8411 ft 144 kts 311°
2026-05-09 17:29 35.12568 -112.68578 8472 ft 140 kts 310°
2026-05-09 17:29 35.13196 -112.69449 8558 ft 138 kts 310°
2026-05-09 17:30 35.13858 -112.70387 8509 ft 144 kts 308°
2026-05-09 17:30 35.14483 -112.71315 8575 ft 139 kts 309°
2026-05-09 17:30 35.15059 -112.72275 8577 ft 140 kts 301°
2026-05-09 17:30 35.15572 -112.73280 8624 ft 137 kts 301°
2026-05-09 17:31 35.16101 -112.74269 8551 ft 144 kts 302°
2026-05-09 17:31 35.16621 -112.75300 8571 ft 141 kts 300°
2026-05-09 17:32 35.19045 -112.78993 8591 ft 134 kts 309°
2026-05-09 17:32 35.19687 -112.79912 8429 ft 147 kts 309°
2026-05-09 17:32 35.20349 -112.80757 8683 ft 130 kts 316°
2026-05-09 17:33 35.21093 -112.81565 8376 ft 154 kts 317°
2026-05-09 17:33 35.21893 -112.82416 8321 ft 149 kts 320°
2026-05-09 17:33 35.22711 -112.83145 8351 ft 142 kts 323°
2026-05-09 17:33 35.23522 -112.83827 8309 ft 142 kts 322°
2026-05-09 17:34 35.24348 -112.84495 8225 ft 144 kts 327°
2026-05-09 17:35 35.29932 -112.86521 8048 ft 144 kts 346°
2026-05-09 17:35 35.30911 -112.86694 8071 ft 138 kts 348°
2026-05-09 17:36 35.31866 -112.86886 7982 ft 145 kts 344°
2026-05-09 17:36 35.32786 -112.87284 8054 ft 137 kts 329°
2026-05-09 17:36 35.33581 -112.87937 7997 ft 140 kts 316°
2026-05-09 17:36 35.34234 -112.88774 8070 ft 131 kts 304°
2026-05-09 17:37 35.34711 -112.89753 7973 ft 142 kts 289°
2026-05-09 17:37 35.34876 -112.90908 8115 ft 134 kts 269°
2026-05-09 17:37 35.34699 -112.92039 8092 ft 138 kts 251°
2026-05-09 17:37 35.34294 -112.93100 8215 ft 131 kts 244°
2026-05-09 17:38 35.33823 -112.94043 8277 ft 131 kts 244°
2026-05-09 17:38 35.33402 -112.95090 8231 ft 140 kts 248°
2026-05-09 17:38 35.33023 -112.96150 8344 ft 136 kts 249°
2026-05-09 17:39 35.32388 -112.97785 8495 ft 129 kts 244°
2026-05-09 17:39 35.32000 -112.98574 8407 ft 138 kts 241°
2026-05-09 17:39 35.31615 -112.99624 8443 ft 136 kts 252°
2026-05-09 17:40 35.31347 -113.00764 8393 ft 140 kts 259°
2026-05-09 17:40 35.31236 -113.01453 8465 ft 135 kts 259°
2026-05-09 17:41 35.31111 -113.02194 8433 ft 138 kts 258°
2026-05-09 17:41 35.30879 -113.03316 8519 ft 134 kts 254°
2026-05-09 17:41 35.30594 -113.04407 8483 ft 139 kts 255°
2026-05-09 17:42 35.30327 -113.05557 8500 ft 137 kts 257°
2026-05-09 17:42 35.30095 -113.06686 8527 ft 141 kts 259°
2026-05-09 17:42 35.29948 -113.07912 8375 ft 148 kts 263°
2026-05-09 17:42 35.29869 -113.09138 8457 ft 142 kts 269°
2026-05-09 17:43 35.29858 -113.10414 8279 ft 151 kts 270°
2026-05-09 17:43 35.29827 -113.11685 8226 ft 147 kts 269°
2026-05-09 17:43 35.29787 -113.12934 8226 ft 148 kts 268°
2026-05-09 17:43 35.29717 -113.14191 8224 ft 147 kts 264°
2026-05-09 17:44 35.29610 -113.15423 8225 ft 145 kts 264°
2026-05-09 17:44 35.29502 -113.16647 8229 ft 145 kts 265°
2026-05-09 17:44 35.29390 -113.17872 8228 ft 144 kts 263°
2026-05-09 17:44 35.29281 -113.19083 8230 ft 141 kts 264°
2026-05-09 17:45 35.29043 -113.20239 8209 ft 142 kts 244°
2026-05-09 17:45 35.28387 -113.21124 8255 ft 142 kts 219°
2026-05-09 17:45 35.27563 -113.21859 8136 ft 151 kts 216°
2026-05-09 17:45 35.26701 -113.22572 8163 ft 147 kts 214°
2026-05-09 17:46 35.25789 -113.23188 8134 ft 148 kts 211°
2026-05-09 17:46 35.24946 -113.23898 8144 ft 145 kts 222°
2026-05-09 17:46 35.24240 -113.24775 8122 ft 146 kts 233°
2026-05-09 17:46 35.23687 -113.25808 8097 ft 144 kts 246°
2026-05-09 17:47 35.23401 -113.26975 8035 ft 144 kts 259°
2026-05-09 17:47 35.23171 -113.28185 7942 ft 148 kts 255°
2026-05-09 17:47 35.22927 -113.29376 8008 ft 140 kts 256°
2026-05-09 17:47 35.22584 -113.30521 7845 ft 148 kts 245°
2026-05-09 17:48 35.22194 -113.31652 7877 ft 140 kts 251°
2026-05-09 17:48 35.21889 -113.32798 7867 ft 144 kts 254°
2026-05-09 17:48 35.21641 -113.34018 7898 ft 147 kts 259°
2026-05-09 17:48 35.21481 -113.35220 8069 ft 142 kts 263°
2026-05-09 17:49 35.21344 -113.36426 8116 ft 146 kts 261°
2026-05-09 17:49 35.21172 -113.37641 8192 ft 144 kts 260°
2026-05-09 17:49 35.20972 -113.38832 8237 ft 144 kts 258°
2026-05-09 17:49 35.20831 -113.39618 8243 ft 146 kts 258°
2026-05-09 17:50 35.20574 -113.40906 8253 ft 146 kts 256°
2026-05-09 17:50 35.20336 -113.42101 8288 ft 144 kts 261°
2026-05-09 17:51 35.20208 -113.43321 8224 ft 149 kts 264°
2026-05-09 17:51 35.20089 -113.44571 8302 ft 145 kts 262°
2026-05-09 17:51 35.19921 -113.45771 8374 ft 143 kts 258°
2026-05-09 17:51 35.19652 -113.46968 8287 ft 150 kts 251°
2026-05-09 17:52 35.19257 -113.48131 8330 ft 145 kts 244°
2026-05-09 17:52 35.18766 -113.49199 8355 ft 144 kts 239°
2026-05-09 17:52 35.18215 -113.50264 8339 ft 147 kts 235°
2026-05-09 17:52 35.17653 -113.51278 8458 ft 143 kts 239°
2026-05-09 17:53 35.17173 -113.52342 8485 ft 143 kts 245°
2026-05-09 17:53 35.16823 -113.53497 8400 ft 148 kts 255°
2026-05-09 17:53 35.16652 -113.54741 8414 ft 147 kts 266°
2026-05-09 17:53 35.16688 -113.56001 8340 ft 153 kts 277°
2026-05-09 17:54 35.16926 -113.57291 8317 ft 152 kts 284°
2026-05-09 17:54 35.17199 -113.58515 8363 ft 148 kts 284°
2026-05-09 17:54 35.17443 -113.59733 8398 ft 145 kts 280°
2026-05-09 17:54 35.17630 -113.60942 8379 ft 148 kts 279°
2026-05-09 17:55 35.17720 -113.62182 8445 ft 143 kts 269°
2026-05-09 17:55 35.17626 -113.63392 8436 ft 144 kts 259°
2026-05-09 17:55 35.17363 -113.64567 8428 ft 145 kts 252°
2026-05-09 17:55 35.16952 -113.65697 8411 ft 145 kts 238°
2026-05-09 17:56 35.16286 -113.66619 8396 ft 147 kts 222°
2026-05-09 17:56 35.15444 -113.67340 8313 ft 147 kts 211°
2026-05-09 17:56 35.14516 -113.67842 8332 ft 147 kts 200°
2026-05-09 17:57 35.12545 -113.68572 8326 ft 145 kts 203°
2026-05-09 17:57 35.11566 -113.68939 8263 ft 151 kts 194°
2026-05-09 17:57 35.10527 -113.69092 8293 ft 149 kts 184°
2026-05-09 17:57 35.09483 -113.69086 8261 ft 153 kts 181°
2026-05-09 17:58 35.08435 -113.69076 8291 ft 148 kts 183°
2026-05-09 17:58 35.07395 -113.69063 8280 ft 151 kts 181°
2026-05-09 17:58 35.06372 -113.69095 8333 ft 145 kts 188°
2026-05-09 17:58 35.05389 -113.69362 8302 ft 148 kts 199°
2026-05-09 17:59 35.04428 -113.69835 8261 ft 149 kts 202°
2026-05-09 17:59 35.03416 -113.70109 8237 ft 150 kts 186°
2026-05-09 17:59 35.02367 -113.70078 8224 ft 151 kts 174°
2026-05-09 17:59 35.01339 -113.69830 8250 ft 150 kts 167°
2026-05-09 18:00 35.00352 -113.69459 8221 ft 152 kts 163°
2026-05-09 18:00 34.99355 -113.69055 8220 ft 150 kts 164°
2026-05-09 18:00 34.98355 -113.68699 8227 ft 149 kts 168°
2026-05-09 18:00 34.97352 -113.68352 8148 ft 154 kts 158°
2026-05-09 18:01 34.96431 -113.67680 8179 ft 151 kts 146°
2026-05-09 18:01 34.95558 -113.66985 8147 ft 153 kts 151°
2026-05-09 18:01 34.94584 -113.66483 8135 ft 150 kts 172°
2026-05-09 18:01 34.93542 -113.66450 8108 ft 150 kts 183°
2026-05-09 18:02 34.92849 -113.66507 8142 ft 146 kts 187°
2026-05-09 18:02 34.91836 -113.66666 8137 ft 148 kts 188°
2026-05-09 18:02 34.90823 -113.66826 8154 ft 147 kts 189°
2026-05-09 18:02 34.89814 -113.67045 8060 ft 150 kts 203°
2026-05-09 18:03 34.88880 -113.67649 7903 ft 157 kts 207°
2026-05-09 18:03 34.87897 -113.68021 8091 ft 140 kts 190°
2026-05-09 18:03 34.86889 -113.67972 7945 ft 155 kts 167°
2026-05-09 18:03 34.85860 -113.67649 8021 ft 147 kts 168°
2026-05-09 18:04 34.84872 -113.67401 8030 ft 148 kts 170°
2026-05-09 18:04 34.83868 -113.67076 8001 ft 149 kts 163°
2026-05-09 18:04 34.82905 -113.66638 8036 ft 147 kts 160°
2026-05-09 18:04 34.81952 -113.66190 8046 ft 147 kts 161°
2026-05-09 18:05 34.80989 -113.65754 8037 ft 149 kts 161°
2026-05-09 18:05 34.80011 -113.65357 8050 ft 147 kts 162°
2026-05-09 18:05 34.79038 -113.64935 8016 ft 150 kts 162°
2026-05-09 18:05 34.78063 -113.64530 8056 ft 146 kts 164°
2026-05-09 18:06 34.77072 -113.64193 8003 ft 151 kts 167°
2026-05-09 18:06 34.76049 -113.63915 8015 ft 149 kts 169°
2026-05-09 18:06 34.75031 -113.63671 7996 ft 150 kts 170°
2026-05-09 18:06 34.73988 -113.63466 7981 ft 149 kts 174°
2026-05-09 18:07 34.72948 -113.63385 7941 ft 150 kts 181°
2026-05-09 18:07 34.71925 -113.63496 7956 ft 146 kts 191°
2026-05-09 18:07 34.70965 -113.63904 7913 ft 149 kts 207°
2026-05-09 18:07 34.70067 -113.64543 7887 ft 149 kts 213°
2026-05-09 18:08 34.69230 -113.65284 7864 ft 149 kts 220°
2026-05-09 18:08 34.68588 -113.66255 7847 ft 148 kts 244°
2026-05-09 18:08 34.68368 -113.67488 7772 ft 155 kts 266°
2026-05-09 18:08 34.68343 -113.68815 7752 ft 154 kts 269°
2026-05-09 18:09 34.68402 -113.70073 7895 ft 149 kts 274°
2026-05-09 18:09 34.68534 -113.71361 7844 ft 156 kts 277°
2026-05-09 18:09 34.68728 -113.72629 7962 ft 150 kts 280°
2026-05-09 18:09 34.68967 -113.73872 7940 ft 154 kts 282°
2026-05-09 18:10 34.69241 -113.75141 7936 ft 154 kts 280°
2026-05-09 18:10 34.69374 -113.75988 7947 ft 154 kts 275°
2026-05-09 18:10 34.69415 -113.77707 7989 ft 152 kts 261°
2026-05-09 18:10 34.69221 -113.78965 8023 ft 151 kts 251°
2026-05-09 18:11 34.68861 -113.80161 8051 ft 151 kts 243°
2026-05-09 18:11 34.68385 -113.81285 8106 ft 148 kts 238°
2026-05-09 18:11 34.67889 -113.82350 8026 ft 144 kts 244°
2026-05-09 18:11 34.67636 -113.83571 7635 ft 157 kts 260°
2026-05-09 18:12 34.67638 -113.84909 7324 ft 159 kts 274°
2026-05-09 18:12 34.67761 -113.86277 6880 ft 166 kts 274°
2026-05-09 18:12 34.67856 -113.87687 6570 ft 162 kts 275°
2026-05-09 18:12 34.67940 -113.89051 6092 ft 169 kts 271°
2026-05-09 18:13 34.67982 -113.90494 5584 ft 171 kts 269°
2026-05-09 18:13 34.67974 -113.91968 4961 ft 177 kts 266°
2026-05-09 18:13 34.67939 -113.93494 4283 ft 182 kts 266°
2026-05-09 18:13 34.67914 -113.94906 4204 ft 157 kts 267°
2026-05-09 18:14 34.67908 -113.96305 3620 ft 168 kts 267°
2026-05-09 18:14 34.67904 -113.97644 3560 ft 146 kts 268°
2026-05-09 18:14 34.67915 -113.98824 3544 ft 133 kts 268°
2026-05-09 18:14 34.67889 -113.99979 3355 ft 136 kts 267°
2026-05-09 18:15 34.67867 -114.01086 3323 ft 130 kts 266°
2026-05-09 18:15 34.67853 -114.02124 3411 ft 114 kts 266°
2026-05-09 18:15 34.67828 -114.03029 3497 ft 101 kts 263°
2026-05-09 18:15 34.67788 -114.03842 3548 ft 95 kts 262°
2026-05-09 18:16 34.67730 -114.04674 3410 ft 101 kts 261°
2026-05-09 18:16 34.67653 -114.05580 3314 ft 114 kts 260°
2026-05-09 18:16 34.67558 -114.06562 3275 ft 116 kts 261°
2026-05-09 18:16 34.67456 -114.07533 3282 ft 119 kts 260°
2026-05-09 18:17 34.67338 -114.08529 3281 ft 119 kts 259°
2026-05-09 18:17 34.67212 -114.09509 3286 ft 116 kts 258°
2026-05-09 18:17 34.67064 -114.10476 3287 ft 116 kts 253°
2026-05-09 18:17 34.67128 -114.11459 3287 ft 119 kts 280°
2026-05-09 18:18 34.67296 -114.12459 3225 ft 125 kts 278°
2026-05-09 18:18 34.67463 -114.13526 3103 ft 130 kts 278°
2026-05-09 18:18 34.67633 -114.14574 3003 ft 130 kts 278°
2026-05-09 18:18 34.67799 -114.15677 2894 ft 135 kts 278°
2026-05-09 18:19 34.67972 -114.16785 2780 ft 134 kts 278°
2026-05-09 18:19 34.68326 -114.19037 2549 ft 136 kts 277°
2026-05-09 18:19 34.68530 -114.20160 2432 ft 136 kts 279°
2026-05-09 18:20 34.68729 -114.21300 2341 ft 138 kts 277°
2026-05-09 18:20 34.68930 -114.22413 2329 ft 132 kts 279°
2026-05-09 18:20 34.69132 -114.23491 2330 ft 131 kts 278°
2026-05-09 18:20 34.69318 -114.24560 2337 ft 129 kts 279°
2026-05-09 18:21 34.69495 -114.25634 2326 ft 127 kts 277°
2026-05-09 18:21 34.69668 -114.26678 2330 ft 127 kts 279°
2026-05-09 18:21 34.69845 -114.27739 2330 ft 128 kts 278°
2026-05-09 18:21 34.70026 -114.28779 2336 ft 125 kts 278°
2026-05-09 18:22 34.70202 -114.29806 2341 ft 121 kts 278°
2026-05-09 18:22 34.70383 -114.30756 2434 ft 106 kts 278°
2026-05-09 18:22 34.70528 -114.31606 2507 ft 104 kts 276°
2026-05-09 18:22 34.70688 -114.32474 2513 ft 103 kts 278°
2026-05-09 18:23 34.70846 -114.33328 2505 ft 102 kts 278°
2026-05-09 18:23 34.70996 -114.34180 2508 ft 103 kts 279°
2026-05-09 18:23 34.71153 -114.35037 2512 ft 104 kts 277°
2026-05-09 18:23 34.71288 -114.35922 2517 ft 108 kts 275°
2026-05-09 18:24 34.71377 -114.36437 2516 ft 111 kts 278°
2026-05-09 18:24 34.71555 -114.37332 2513 ft 106 kts 278°
2026-05-09 18:24 34.71711 -114.38171 2505 ft 101 kts 279°
2026-05-09 18:25 34.71982 -114.39940 2501 ft 107 kts 279°
2026-05-09 18:25 34.72262 -114.40754 2490 ft 110 kts 322°
2026-05-09 18:25 34.72984 -114.40851 2500 ft 110 kts
2026-05-09 18:25 34.73750 -114.40746 2516 ft 113 kts
2026-05-09 18:26 34.74545 -114.40648 2516 ft 116 kts
2026-05-09 18:26 34.75324 -114.40408 2512 ft 118 kts 41°
2026-05-09 18:26 34.75604 -114.39533 2515 ft 116 kts 92°
2026-05-09 18:26 34.75602 -114.38553 2503 ft 116 kts 92°
2026-05-09 18:27 34.75634 -114.37565 2507 ft 120 kts 93°
2026-05-09 18:27 34.75655 -114.36893 2501 ft 121 kts 92°
2026-05-09 18:27 34.75685 -114.35520 2501 ft 121 kts 92°
2026-05-09 18:27 34.75687 -114.34502 2498 ft 121 kts 93°
2026-05-09 18:28 34.75698 -114.33492 2502 ft 120 kts 89°
2026-05-09 18:28 34.75704 -114.32472 2501 ft 122 kts 92°
2026-05-09 18:28 34.75722 -114.31440 2502 ft 123 kts 92°
2026-05-09 18:28 34.75495 -114.30531 2487 ft 108 kts 140°
2026-05-09 18:29 34.74799 -114.30357 2492 ft 104 kts 182°
2026-05-09 18:29 34.74069 -114.30323 2500 ft 106 kts 177°
2026-05-09 18:29 34.73336 -114.30274 2507 ft 105 kts 179°
2026-05-09 18:29 34.72602 -114.30227 2512 ft 106 kts 180°
2026-05-09 18:30 34.71870 -114.30320 2504 ft 109 kts 211°
2026-05-09 18:30 34.71558 -114.31153 2508 ft 116 kts 270°
2026-05-09 18:30 34.71607 -114.32148 2514 ft 118 kts 269°
2026-05-09 18:30 34.71629 -114.33140 2510 ft 117 kts 267°
2026-05-09 18:31 34.71657 -114.34113 2505 ft 112 kts 269°
2026-05-09 18:31 34.71685 -114.35064 2499 ft 111 kts 269°
2026-05-09 18:31 34.71739 -114.35982 2501 ft 108 kts 268°
2026-05-09 18:31 34.71791 -114.36889 2505 ft 106 kts 270°
2026-05-09 18:32 34.71836 -114.37797 2487 ft 108 kts 269°
2026-05-09 18:32 34.71892 -114.38669 2514 ft 100 kts 270°
2026-05-09 18:32 34.71928 -114.39552 2500 ft 108 kts 269°
2026-05-09 18:32 34.71975 -114.40445 2505 ft 106 kts 269°
2026-05-09 18:33 34.72019 -114.41340 2502 ft 105 kts 269°
2026-05-09 18:33 34.72072 -114.42240 2503 ft 107 kts 270°
2026-05-09 18:33 34.72122 -114.43168 2512 ft 113 kts 269°
2026-05-09 18:33 34.72252 -114.44101 2521 ft 117 kts 300°
2026-05-09 18:34 34.72935 -114.44621 2524 ft 119 kts 337°
2026-05-09 18:34 34.73704 -114.45025 2527 ft 121 kts 335°
2026-05-09 18:34 34.74461 -114.45428 2532 ft 118 kts 335°
2026-05-09 18:34 34.75207 -114.45815 2530 ft 116 kts 336°
2026-05-09 18:35 34.75949 -114.46201 2527 ft 115 kts 336°
2026-05-09 18:35 34.76691 -114.46588 2527 ft 117 kts 335°
2026-05-09 18:35 34.77431 -114.46978 2528 ft 116 kts 334°
2026-05-09 18:35 34.78178 -114.47387 2532 ft 120 kts 328°
2026-05-09 18:36 34.78622 -114.47807 2539 ft 122 kts 321°
2026-05-09 18:36 34.79437 -114.48114 2537 ft 125 kts 349°
2026-05-09 18:36 34.80287 -114.48316 2534 ft 124 kts 348°
2026-05-09 18:36 34.81096 -114.48632 2532 ft 122 kts 334°
2026-05-09 18:37 34.81878 -114.49041 2538 ft 124 kts 335°
2026-05-09 18:37 34.82673 -114.49450 2540 ft 124 kts 334°
2026-05-09 18:37 34.83464 -114.49869 2538 ft 125 kts 336°
2026-05-09 18:37 34.84277 -114.50300 2531 ft 129 kts 337°
2026-05-09 18:38 34.85090 -114.50733 2533 ft 127 kts 334°
2026-05-09 18:38 34.85897 -114.51158 2528 ft 126 kts 334°
2026-05-09 18:38 34.86709 -114.51567 2529 ft 127 kts 335°
2026-05-09 18:40 34.92335 -114.54467 2513 ft 125 kts 335°
2026-05-09 18:40 34.93128 -114.54878 2504 ft 124 kts 335°
2026-05-09 18:40 34.93916 -114.55282 2501 ft 122 kts 336°
2026-05-09 18:41 34.94691 -114.55689 2503 ft 120 kts 334°
2026-05-09 18:41 34.95467 -114.56099 2505 ft 123 kts 336°
2026-05-09 18:41 34.96256 -114.56512 2490 ft 125 kts 336°
2026-05-09 18:41 34.97063 -114.56934 2497 ft 129 kts 335°
2026-05-09 18:42 34.97979 -114.57412 2506 ft 155 kts 335°
2026-05-09 18:42 34.99019 -114.57955 2509 ft 168 kts 335°
2026-05-09 18:42 35.00113 -114.58532 2509 ft 174 kts 335°
2026-05-09 18:42 35.01237 -114.59129 2513 ft 179 kts 335°
2026-05-09 18:43 35.02434 -114.59553 2516 ft 181 kts 349°
2026-05-09 18:43 35.03672 -114.59842 2518 ft 181 kts 348°
2026-05-09 18:43 35.04923 -114.60147 2520 ft 181 kts 348°
2026-05-09 18:43 35.06154 -114.60442 2573 ft 179 kts 348°
2026-05-09 18:44 35.07351 -114.60728 2660 ft 177 kts 348°
2026-05-09 18:44 35.08568 -114.61021 2804 ft 172 kts 348°
2026-05-09 18:44 35.09713 -114.61295 3007 ft 169 kts 348°
2026-05-09 18:44 35.10900 -114.61504 3005 ft 175 kts 357°
2026-05-09 18:45 35.12141 -114.61512 3028 ft 182 kts
2026-05-09 18:45 35.13412 -114.61534 3020 ft 183 kts 360°
2026-05-09 18:45 35.14678 -114.61553 3020 ft 182 kts 360°
2026-05-09 18:45 35.15936 -114.61570 2983 ft 181 kts
2026-05-09 18:46 35.17196 -114.61586 2982 ft 181 kts
2026-05-09 18:46 35.18453 -114.61602 2981 ft 181 kts
2026-05-09 18:46 35.19708 -114.61624 2980 ft 180 kts 360°
2026-05-09 18:46 35.20956 -114.61646 2987 ft 180 kts
2026-05-09 18:47 35.22201 -114.61532 2976 ft 180 kts 20°
2026-05-09 18:47 35.23280 -114.60782 2982 ft 178 kts 35°
2026-05-09 18:47 35.24306 -114.59944 2983 ft 177 kts 35°
2026-05-09 18:47 35.25326 -114.59100 2982 ft 177 kts 34°
2026-05-09 18:48 35.26353 -114.58264 2982 ft 177 kts 35°
2026-05-09 18:48 35.27382 -114.57432 2982 ft 177 kts 35°
2026-05-09 18:48 35.28407 -114.56603 2982 ft 176 kts 36°
2026-05-09 18:48 35.29426 -114.55770 2987 ft 177 kts 35°
2026-05-09 18:49 35.30528 -114.55106 2979 ft 179 kts 17°
2026-05-09 18:49 35.31730 -114.54736 2989 ft 177 kts 15°
2026-05-09 18:49 35.32942 -114.54550 2988 ft 177 kts 351°
2026-05-09 18:49 35.34137 -114.54916 2989 ft 177 kts 344°
2026-05-09 18:50 35.35329 -114.55318 2990 ft 177 kts 344°
2026-05-09 18:50 35.36462 -114.55702 2987 ft 161 kts 344°
2026-05-09 18:50 35.37501 -114.56057 2985 ft 150 kts 344°
2026-05-09 18:50 35.38451 -114.56474 2992 ft 142 kts 324°
2026-05-09 18:51 35.38875 -114.57495 2988 ft 138 kts 268°
2026-05-09 18:51 35.38451 -114.58497 2987 ft 135 kts 224°
2026-05-09 18:51 35.37763 -114.59268 2988 ft 134 kts 208°
2026-05-09 18:51 35.36870 -114.59491 2989 ft 132 kts 176°
2026-05-09 18:52 35.35980 -114.59242 2991 ft 131 kts 163°
2026-05-09 18:52 35.35392 -114.59029 2992 ft 132 kts 162°
2026-05-09 18:52 35.34577 -114.58717 3055 ft 132 kts 162°
2026-05-09 18:52 35.33685 -114.58368 3005 ft 135 kts 162°
2026-05-09 18:53 35.32800 -114.58017 3006 ft 133 kts 162°
2026-05-09 18:53 35.31921 -114.57668 3006 ft 132 kts 162°
2026-05-09 18:53 35.31050 -114.57324 3005 ft 131 kts 162°
2026-05-09 18:53 35.30183 -114.56982 2998 ft 131 kts 160°
2026-05-09 18:54 35.29314 -114.56639 2989 ft 132 kts 161°
2026-05-09 18:54 35.28441 -114.56340 2984 ft 129 kts 161°
2026-05-09 18:54 35.27591 -114.56023 2983 ft 128 kts 174°
2026-05-09 18:54 35.26754 -114.56375 2985 ft 130 kts 205°
2026-05-09 18:55 35.25928 -114.56780 2981 ft 128 kts 177°
2026-05-09 18:55 35.25059 -114.56608 2988 ft 128 kts 174°
2026-05-09 18:55 35.24166 -114.56573 2982 ft 130 kts 176°
2026-05-09 18:55 35.23232 -114.56527 2801 ft 144 kts 178°
2026-05-09 18:56 35.22228 -114.56526 2655 ft 136 kts 177°
2026-05-09 18:56 35.21337 -114.56496 2329 ft 131 kts 176°
2026-05-09 18:56 35.20408 -114.56417 1741 ft 133 kts 170°
2026-05-09 18:56 35.19498 -114.56291 1337 ft 123 kts 173°
2026-05-09 18:57 35.18713 -114.56184 1050 ft 107 kts 175°
2026-05-09 18:57 35.18000 -114.56131 863 ft 98 kts 175°
2026-05-09 18:57 35.17360 -114.56080 737 ft 87 kts 175°
2026-05-09 18:57 35.16771 -114.56038 608 ft 80 kts 173°
2026-05-09 18:58 35.16271 -114.56001 590 ft 63 kts 173°
2026-05-09 18:58 35.15909 -114.55966 602 ft 43 kts 177°
2026-05-09 18:58 35.15639 -114.55946 621 ft 36 kts 176°
2026-05-09 18:58 35.15469 -114.55906 666 ft 13 kts 142°
2026-05-09 18:59 35.15466 -114.55740 664 ft 23 kts 80°
2026-05-09 18:59 35.15560 -114.55653 661 ft 14 kts 37°
2026-05-09 18:59 35.15608 -114.55612 659 ft 0 kts 275°